Year,Month,Day,Hour,Minute,Value (Times are PST for temperature in C)
2019,06,11,00,00,17.80
2019,06,11,00,01,17.80
2019,06,11,00,02,17.80
2019,06,11,00,03,17.80
2019,06,11,00,04,17.80
2019,06,11,00,05,17.80
2019,06,11,00,06,17.80
2019,06,11,00,07,17.80
2019,06,11,00,08,17.80
2019,06,11,00,09,17.80
2019,06,11,00,10,17.80
2019,06,11,00,11,17.80
2019,06,11,00,12,17.70
2019,06,11,00,13,17.70
2019,06,11,00,14,17.70
2019,06,11,00,15,17.70
2019,06,11,00,16,17.70
2019,06,11,00,17,17.70
2019,06,11,00,18,17.70
2019,06,11,00,19,17.70
2019,06,11,00,20,17.70
2019,06,11,00,21,17.60
2019,06,11,00,22,17.60
2019,06,11,00,23,17.60
2019,06,11,00,24,17.50
2019,06,11,00,25,17.50
2019,06,11,00,26,17.40
2019,06,11,00,27,17.40
2019,06,11,00,28,17.30
2019,06,11,00,29,17.30
2019,06,11,00,30,17.30
2019,06,11,00,31,17.30
2019,06,11,00,32,17.20
2019,06,11,00,33,17.20
2019,06,11,00,34,17.10
2019,06,11,00,35,17.10
2019,06,11,00,36,17.00
2019,06,11,00,37,16.90
2019,06,11,00,38,16.90
2019,06,11,00,39,16.80
2019,06,11,00,40,16.70
2019,06,11,00,41,16.70
2019,06,11,00,42,16.60
2019,06,11,00,43,16.50
2019,06,11,00,44,16.50
2019,06,11,00,45,16.40
2019,06,11,00,46,16.30
2019,06,11,00,47,16.30
2019,06,11,00,48,16.20
2019,06,11,00,49,16.20
2019,06,11,00,50,16.10
2019,06,11,00,51,16.10
2019,06,11,00,52,16.10
2019,06,11,00,53,16.10
2019,06,11,00,54,16.00
2019,06,11,00,55,16.00
2019,06,11,00,56,15.90
2019,06,11,00,57,15.90
2019,06,11,00,58,15.90
2019,06,11,00,59,15.90
2019,06,11,01,00,15.80
2019,06,11,01,01,15.80
2019,06,11,01,02,15.80
2019,06,11,01,03,15.80
2019,06,11,01,04,15.80
2019,06,11,01,05,15.80
2019,06,11,01,06,15.80
2019,06,11,01,07,15.80
2019,06,11,01,08,15.80
2019,06,11,01,09,15.80
2019,06,11,01,10,15.80
2019,06,11,01,11,15.80
2019,06,11,01,12,15.80
2019,06,11,01,13,15.80
2019,06,11,01,14,15.80
2019,06,11,01,15,15.80
2019,06,11,01,16,15.80
2019,06,11,01,17,15.80
2019,06,11,01,18,15.80
2019,06,11,01,19,15.80
2019,06,11,01,20,15.80
2019,06,11,01,21,15.80
2019,06,11,01,22,15.80
2019,06,11,01,23,15.80
2019,06,11,01,24,15.90
2019,06,11,01,25,15.90
2019,06,11,01,26,15.90
2019,06,11,01,27,15.90
2019,06,11,01,28,15.90
2019,06,11,01,29,15.80
2019,06,11,01,30,15.80
2019,06,11,01,31,15.80
2019,06,11,01,32,15.80
2019,06,11,01,33,15.80
2019,06,11,01,34,15.70
2019,06,11,01,35,15.70
2019,06,11,01,36,15.70
2019,06,11,01,37,15.70
2019,06,11,01,38,15.60
2019,06,11,01,39,15.60
2019,06,11,01,40,15.60
2019,06,11,01,41,15.60
2019,06,11,01,42,15.60
2019,06,11,01,43,15.50
2019,06,11,01,44,15.50
2019,06,11,01,45,15.50
2019,06,11,01,46,15.50
2019,06,11,01,47,15.50
2019,06,11,01,48,15.40
2019,06,11,01,49,15.40
2019,06,11,01,50,15.40
2019,06,11,01,51,15.40
2019,06,11,01,52,15.40
2019,06,11,01,53,15.30
2019,06,11,01,54,15.30
2019,06,11,01,55,15.30
2019,06,11,01,56,15.30
2019,06,11,01,57,15.30
2019,06,11,01,58,15.30
2019,06,11,01,59,15.30
2019,06,11,02,00,15.30
2019,06,11,02,01,15.20
2019,06,11,02,02,15.20
2019,06,11,02,03,15.30
2019,06,11,02,04,15.20
2019,06,11,02,05,15.30
2019,06,11,02,06,15.20
2019,06,11,02,07,15.30
2019,06,11,02,08,15.30
2019,06,11,02,09,15.30
2019,06,11,02,10,15.30
2019,06,11,02,11,15.30
2019,06,11,02,12,15.30
2019,06,11,02,13,15.30
2019,06,11,02,14,15.20
2019,06,11,02,15,15.20
2019,06,11,02,16,15.20
2019,06,11,02,17,15.20
2019,06,11,02,18,15.20
2019,06,11,02,19,15.10
2019,06,11,02,20,15.10
2019,06,11,02,21,15.10
2019,06,11,02,22,15.00
2019,06,11,02,23,15.00
2019,06,11,02,24,15.00
2019,06,11,02,25,15.00
2019,06,11,02,26,14.90
2019,06,11,02,27,14.90
2019,06,11,02,28,14.90
2019,06,11,02,29,14.90
2019,06,11,02,30,14.90
2019,06,11,02,31,14.90
2019,06,11,02,32,14.90
2019,06,11,02,33,14.90
2019,06,11,02,34,14.90
2019,06,11,02,35,14.90
2019,06,11,02,36,14.90
2019,06,11,02,37,14.90
2019,06,11,02,38,14.90
2019,06,11,02,39,14.90
2019,06,11,02,40,14.90
2019,06,11,02,41,14.90
2019,06,11,02,42,14.90
2019,06,11,02,43,14.90
2019,06,11,02,44,14.90
2019,06,11,02,45,15.00
2019,06,11,02,46,15.00
2019,06,11,02,47,15.00
2019,06,11,02,48,15.00
2019,06,11,02,49,15.10
2019,06,11,02,50,15.10
2019,06,11,02,51,15.10
2019,06,11,02,52,15.10
2019,06,11,02,53,15.10
2019,06,11,02,54,15.10
2019,06,11,02,55,15.10
2019,06,11,02,56,15.10
2019,06,11,02,57,15.20
2019,06,11,02,58,15.20
2019,06,11,02,59,15.20
2019,06,11,03,00,15.20
2019,06,11,03,01,15.20
2019,06,11,03,02,15.20
2019,06,11,03,03,15.20
2019,06,11,03,04,15.20
2019,06,11,03,05,15.10
2019,06,11,03,06,15.10
2019,06,11,03,07,15.10
2019,06,11,03,08,15.10
2019,06,11,03,09,15.10
2019,06,11,03,10,15.10
2019,06,11,03,11,15.10
2019,06,11,03,12,15.10
2019,06,11,03,13,15.10
2019,06,11,03,14,15.10
2019,06,11,03,15,15.10
2019,06,11,03,16,15.10
2019,06,11,03,17,15.10
2019,06,11,03,18,15.10
2019,06,11,03,19,15.10
2019,06,11,03,20,15.10
2019,06,11,03,21,15.00
2019,06,11,03,22,15.00
2019,06,11,03,23,15.00
2019,06,11,03,24,14.90
2019,06,11,03,25,14.90
2019,06,11,03,26,14.90
2019,06,11,03,27,14.80
2019,06,11,03,28,14.80
2019,06,11,03,29,14.80
2019,06,11,03,30,14.70
2019,06,11,03,31,14.70
2019,06,11,03,32,14.70
2019,06,11,03,33,14.70
2019,06,11,03,34,14.60
2019,06,11,03,35,14.60
2019,06,11,03,36,14.60
2019,06,11,03,37,14.60
2019,06,11,03,38,14.50
2019,06,11,03,39,14.50
2019,06,11,03,40,14.50
2019,06,11,03,41,14.40
2019,06,11,03,42,14.40
2019,06,11,03,43,14.40
2019,06,11,03,44,14.30
2019,06,11,03,45,14.30
2019,06,11,03,46,14.30
2019,06,11,03,47,14.30
2019,06,11,03,48,14.30
2019,06,11,03,49,14.30
2019,06,11,03,50,14.30
2019,06,11,03,51,14.30
2019,06,11,03,52,14.20
2019,06,11,03,53,14.20
2019,06,11,03,54,14.20
2019,06,11,03,55,14.20
2019,06,11,03,56,14.20
2019,06,11,03,57,14.20
2019,06,11,03,58,14.20
2019,06,11,03,59,14.20
2019,06,11,04,00,14.20
2019,06,11,04,01,14.20
2019,06,11,04,02,14.20
2019,06,11,04,03,14.20
2019,06,11,04,04,14.20
2019,06,11,04,05,14.20
2019,06,11,04,06,14.20
2019,06,11,04,07,14.20
2019,06,11,04,08,14.20
2019,06,11,04,09,14.20
2019,06,11,04,10,14.20
2019,06,11,04,11,14.20
2019,06,11,04,12,14.20
2019,06,11,04,13,14.20
2019,06,11,04,14,14.20
2019,06,11,04,15,14.20
2019,06,11,04,16,14.20
2019,06,11,04,17,14.30
2019,06,11,04,18,14.30
2019,06,11,04,19,14.30
2019,06,11,04,20,14.30
2019,06,11,04,21,14.30
2019,06,11,04,22,14.30
2019,06,11,04,23,14.30
2019,06,11,04,24,14.30
2019,06,11,04,25,14.30
2019,06,11,04,26,14.30
2019,06,11,04,27,14.30
2019,06,11,04,28,14.30
2019,06,11,04,29,14.30
2019,06,11,04,30,14.30
2019,06,11,04,31,14.30
2019,06,11,04,32,14.30
2019,06,11,04,33,14.30
2019,06,11,04,34,14.30
2019,06,11,04,35,14.30
2019,06,11,04,36,14.30
2019,06,11,04,37,14.30
2019,06,11,04,38,14.30
2019,06,11,04,39,14.20
2019,06,11,04,40,14.20
2019,06,11,04,41,14.20
2019,06,11,04,42,14.20
2019,06,11,04,43,14.20
2019,06,11,04,44,14.20
2019,06,11,04,45,14.20
2019,06,11,04,46,14.20
2019,06,11,04,47,14.20
2019,06,11,04,48,14.30
2019,06,11,04,49,14.30
2019,06,11,04,50,14.30
2019,06,11,04,51,14.30
2019,06,11,04,52,14.30
2019,06,11,04,53,14.30
2019,06,11,04,54,14.30
2019,06,11,04,55,14.30
2019,06,11,04,56,14.30
2019,06,11,04,57,14.30
2019,06,11,04,58,14.30
2019,06,11,04,59,14.30
2019,06,11,05,00,14.30
2019,06,11,05,01,14.30
2019,06,11,05,02,14.30
2019,06,11,05,03,14.30
2019,06,11,05,04,14.30
2019,06,11,05,05,14.30
2019,06,11,05,06,14.30
2019,06,11,05,07,14.30
2019,06,11,05,08,14.30
2019,06,11,05,09,14.30
2019,06,11,05,10,14.20
2019,06,11,05,11,14.20
2019,06,11,05,12,14.20
2019,06,11,05,13,14.20
2019,06,11,05,14,14.20
2019,06,11,05,15,14.20
2019,06,11,05,16,14.20
2019,06,11,05,17,14.20
2019,06,11,05,18,14.10
2019,06,11,05,19,14.10
2019,06,11,05,20,14.10
2019,06,11,05,21,14.10
2019,06,11,05,22,14.10
2019,06,11,05,23,14.00
2019,06,11,05,24,14.00
2019,06,11,05,25,14.00
2019,06,11,05,26,14.00
2019,06,11,05,27,14.00
2019,06,11,05,28,14.00
2019,06,11,05,29,14.00
2019,06,11,05,30,14.00
2019,06,11,05,31,14.00
2019,06,11,05,32,14.00
2019,06,11,05,33,14.00
2019,06,11,05,34,14.00
2019,06,11,05,35,14.00
2019,06,11,05,36,14.00
2019,06,11,05,37,14.00
2019,06,11,05,38,14.00
2019,06,11,05,39,14.00
2019,06,11,05,40,14.00
2019,06,11,05,41,14.10
2019,06,11,05,42,14.10
2019,06,11,05,43,14.10
2019,06,11,05,44,14.20
2019,06,11,05,45,14.20
2019,06,11,05,46,14.20
2019,06,11,05,47,14.20
2019,06,11,05,48,14.30
2019,06,11,05,49,14.30
2019,06,11,05,50,14.30
2019,06,11,05,51,14.40
2019,06,11,05,52,14.40
2019,06,11,05,53,14.40
2019,06,11,05,54,14.40
2019,06,11,05,55,14.40
2019,06,11,05,56,14.40
2019,06,11,05,57,14.40
2019,06,11,05,58,14.40
2019,06,11,05,59,14.30
2019,06,11,06,00,14.30
2019,06,11,06,01,14.30
2019,06,11,06,02,14.30
2019,06,11,06,03,14.20
2019,06,11,06,04,14.20
2019,06,11,06,05,14.10
2019,06,11,06,06,14.10
2019,06,11,06,07,14.10
2019,06,11,06,08,14.10
2019,06,11,06,09,14.00
2019,06,11,06,10,14.00
2019,06,11,06,11,14.00
2019,06,11,06,12,14.00
2019,06,11,06,13,14.00
2019,06,11,06,14,14.00
2019,06,11,06,15,14.00
2019,06,11,06,16,14.00
2019,06,11,06,17,13.90
2019,06,11,06,18,13.90
2019,06,11,06,19,13.90
2019,06,11,06,20,13.90
2019,06,11,06,21,13.90
2019,06,11,06,22,13.90
2019,06,11,06,23,13.90
2019,06,11,06,24,13.90
2019,06,11,06,25,13.90
2019,06,11,06,26,13.90
2019,06,11,06,27,13.90
2019,06,11,06,28,13.90
2019,06,11,06,29,13.90
2019,06,11,06,30,13.90
2019,06,11,06,31,13.90
2019,06,11,06,32,13.90
2019,06,11,06,33,13.90
2019,06,11,06,34,13.90
2019,06,11,06,35,14.00
2019,06,11,06,36,14.00
2019,06,11,06,37,14.10
2019,06,11,06,38,14.10
2019,06,11,06,39,14.10
2019,06,11,06,40,14.10
2019,06,11,06,41,14.20
2019,06,11,06,42,14.20
2019,06,11,06,43,14.20
2019,06,11,06,44,14.20
2019,06,11,06,45,14.20
2019,06,11,06,46,14.20
2019,06,11,06,47,14.30
2019,06,11,06,48,14.30
2019,06,11,06,49,14.30
2019,06,11,06,50,14.30
2019,06,11,06,51,14.30
2019,06,11,06,52,14.30
2019,06,11,06,53,14.30
2019,06,11,06,54,14.30
2019,06,11,06,55,14.40
2019,06,11,06,56,14.40
2019,06,11,06,57,14.40
2019,06,11,06,58,14.50
2019,06,11,06,59,14.50
2019,06,11,07,00,14.70
2019,06,11,07,01,14.80
2019,06,11,07,02,14.90
2019,06,11,07,03,15.00
2019,06,11,07,04,15.20
2019,06,11,07,05,15.30
2019,06,11,07,06,15.50
2019,06,11,07,07,15.60
2019,06,11,07,08,15.70
2019,06,11,07,09,15.70
2019,06,11,07,10,15.80
2019,06,11,07,11,16.00
2019,06,11,07,12,16.00
2019,06,11,07,13,16.10
2019,06,11,07,14,16.30
2019,06,11,07,15,16.40
2019,06,11,07,16,16.50
2019,06,11,07,17,16.60
2019,06,11,07,18,16.70
2019,06,11,07,19,16.80
2019,06,11,07,20,16.90
2019,06,11,07,21,17.00
2019,06,11,07,22,17.00
2019,06,11,07,23,17.10
2019,06,11,07,24,17.20
2019,06,11,07,25,17.20
2019,06,11,07,26,17.20
2019,06,11,07,27,17.30
2019,06,11,07,28,17.30
2019,06,11,07,29,17.30
2019,06,11,07,30,17.40
2019,06,11,07,31,17.40
2019,06,11,07,32,17.50
2019,06,11,07,33,17.50
2019,06,11,07,34,17.60
2019,06,11,07,35,17.60
2019,06,11,07,36,17.70
2019,06,11,07,37,17.70
2019,06,11,07,38,17.70
2019,06,11,07,39,17.70
2019,06,11,07,40,17.70
2019,06,11,07,41,17.70
2019,06,11,07,42,17.70
2019,06,11,07,43,17.70
2019,06,11,07,44,17.70
2019,06,11,07,45,17.70
2019,06,11,07,46,17.70
2019,06,11,07,47,17.80
2019,06,11,07,48,17.80
2019,06,11,07,49,17.90
2019,06,11,07,50,17.90
2019,06,11,07,51,18.00
2019,06,11,07,52,18.00
2019,06,11,07,53,18.10
2019,06,11,07,54,18.20
2019,06,11,07,55,18.20
2019,06,11,07,56,18.30
2019,06,11,07,57,18.40
2019,06,11,07,58,18.50
2019,06,11,07,59,18.60
2019,06,11,08,00,18.70
2019,06,11,08,01,18.70
2019,06,11,08,02,18.70
2019,06,11,08,03,18.70
2019,06,11,08,04,18.60
2019,06,11,08,05,18.70
2019,06,11,08,06,18.70
2019,06,11,08,07,18.80
2019,06,11,08,08,18.80
2019,06,11,08,09,18.90
2019,06,11,08,10,19.00
2019,06,11,08,11,19.00
2019,06,11,08,12,18.90
2019,06,11,08,13,18.90
2019,06,11,08,14,18.90
2019,06,11,08,15,18.90
2019,06,11,08,16,19.00
2019,06,11,08,17,19.10
2019,06,11,08,18,19.20
2019,06,11,08,19,19.30
2019,06,11,08,20,19.30
2019,06,11,08,21,19.40
2019,06,11,08,22,19.40
2019,06,11,08,23,19.50
2019,06,11,08,24,19.40
2019,06,11,08,25,19.40
2019,06,11,08,26,19.30
2019,06,11,08,27,19.30
2019,06,11,08,28,19.30
2019,06,11,08,29,19.30
2019,06,11,08,30,19.30
2019,06,11,08,31,19.30
2019,06,11,08,32,19.30
2019,06,11,08,33,19.30
2019,06,11,08,34,19.30
2019,06,11,08,35,19.30
2019,06,11,08,36,19.40
2019,06,11,08,37,19.50
2019,06,11,08,38,19.60
2019,06,11,08,39,19.60
2019,06,11,08,40,19.70
2019,06,11,08,41,19.70
2019,06,11,08,42,19.70
2019,06,11,08,43,19.70
2019,06,11,08,44,19.70
2019,06,11,08,45,19.80
2019,06,11,08,46,19.80
2019,06,11,08,47,19.80
2019,06,11,08,48,19.80
2019,06,11,08,49,19.80
2019,06,11,08,50,19.80
2019,06,11,08,51,19.80
2019,06,11,08,52,19.80
2019,06,11,08,53,19.80
2019,06,11,08,54,19.80
2019,06,11,08,55,19.80
2019,06,11,08,56,19.80
2019,06,11,08,57,19.80
2019,06,11,08,58,19.80
2019,06,11,08,59,19.80
2019,06,11,09,00,19.80
2019,06,11,09,01,19.90
2019,06,11,09,02,19.90
2019,06,11,09,03,19.90
2019,06,11,09,04,19.80
2019,06,11,09,05,19.80
2019,06,11,09,06,19.80
2019,06,11,09,07,19.80
2019,06,11,09,08,19.80
2019,06,11,09,09,19.80
2019,06,11,09,10,19.80
2019,06,11,09,11,19.90
2019,06,11,09,12,19.90
2019,06,11,09,13,20.00
2019,06,11,09,14,20.00
2019,06,11,09,15,20.10
2019,06,11,09,16,20.20
2019,06,11,09,17,20.20
2019,06,11,09,18,20.20
2019,06,11,09,19,20.30
2019,06,11,09,20,20.30
2019,06,11,09,21,20.40
2019,06,11,09,22,20.50
2019,06,11,09,23,20.50
2019,06,11,09,24,20.50
2019,06,11,09,25,20.50
2019,06,11,09,26,20.40
2019,06,11,09,27,20.40
2019,06,11,09,28,20.40
2019,06,11,09,29,20.50
2019,06,11,09,30,20.60
2019,06,11,09,31,20.70
2019,06,11,09,32,20.70
2019,06,11,09,33,20.80
2019,06,11,09,34,20.90
2019,06,11,09,35,20.90
2019,06,11,09,36,20.90
2019,06,11,09,37,21.00
2019,06,11,09,38,21.10
2019,06,11,09,39,21.10
2019,06,11,09,40,21.20
2019,06,11,09,41,21.20
2019,06,11,09,42,21.30
2019,06,11,09,43,21.40
2019,06,11,09,44,21.50
2019,06,11,09,45,21.60
2019,06,11,09,46,21.60
2019,06,11,09,47,21.50
2019,06,11,09,48,21.40
2019,06,11,09,49,21.40
2019,06,11,09,50,21.30
2019,06,11,09,51,21.30
2019,06,11,09,52,21.20
2019,06,11,09,53,21.20
2019,06,11,09,54,21.10
2019,06,11,09,55,21.10
2019,06,11,09,56,21.10
2019,06,11,09,57,21.20
2019,06,11,09,58,21.30
2019,06,11,09,59,21.30
2019,06,11,10,00,21.40
2019,06,11,10,01,21.40
2019,06,11,10,02,21.40
2019,06,11,10,03,21.40
2019,06,11,10,04,21.40
2019,06,11,10,05,21.30
2019,06,11,10,06,21.20
2019,06,11,10,07,21.10
2019,06,11,10,08,21.00
2019,06,11,10,09,20.90
2019,06,11,10,10,20.80
2019,06,11,10,11,20.80
2019,06,11,10,12,20.80
2019,06,11,10,13,20.80
2019,06,11,10,14,20.80
2019,06,11,10,15,20.90
2019,06,11,10,16,20.90
2019,06,11,10,17,20.90
2019,06,11,10,18,20.90
2019,06,11,10,19,20.90
2019,06,11,10,20,20.90
2019,06,11,10,21,20.90
2019,06,11,10,22,20.80
2019,06,11,10,23,20.80
2019,06,11,10,24,20.70
2019,06,11,10,25,20.70
2019,06,11,10,26,20.70
2019,06,11,10,27,20.80
2019,06,11,10,28,20.90
2019,06,11,10,29,20.90
2019,06,11,10,30,21.00
2019,06,11,10,31,21.20
2019,06,11,10,32,21.30
2019,06,11,10,33,21.40
2019,06,11,10,34,21.50
2019,06,11,10,35,21.50
2019,06,11,10,36,21.60
2019,06,11,10,37,21.60
2019,06,11,10,38,21.60
2019,06,11,10,39,21.60
2019,06,11,10,40,21.60
2019,06,11,10,41,21.60
2019,06,11,10,42,21.70
2019,06,11,10,43,21.70
2019,06,11,10,44,21.70
2019,06,11,10,45,21.80
2019,06,11,10,46,21.80
2019,06,11,10,47,21.70
2019,06,11,10,48,21.70
2019,06,11,10,49,21.70
2019,06,11,10,50,21.60
2019,06,11,10,51,21.60
2019,06,11,10,52,21.50
2019,06,11,10,53,21.50
2019,06,11,10,54,21.40
2019,06,11,10,55,21.40
2019,06,11,10,56,21.40
2019,06,11,10,57,21.30
2019,06,11,10,58,21.30
2019,06,11,10,59,21.20
2019,06,11,11,00,21.30
2019,06,11,11,01,21.30
2019,06,11,11,02,21.30
2019,06,11,11,03,21.30
2019,06,11,11,04,21.30
2019,06,11,11,05,21.30
2019,06,11,11,06,21.30
2019,06,11,11,07,21.30
2019,06,11,11,08,21.40
2019,06,11,11,09,21.40
2019,06,11,11,10,21.40
2019,06,11,11,11,21.30
2019,06,11,11,12,21.30
2019,06,11,11,13,21.30
2019,06,11,11,14,21.30
2019,06,11,11,15,21.30
2019,06,11,11,16,21.30
2019,06,11,11,17,21.30
2019,06,11,11,18,21.30
2019,06,11,11,19,21.30
2019,06,11,11,20,21.30
2019,06,11,11,21,21.30
2019,06,11,11,22,21.30
2019,06,11,11,23,21.30
2019,06,11,11,24,21.30
2019,06,11,11,25,21.30
2019,06,11,11,26,21.30
2019,06,11,11,27,21.30
2019,06,11,11,28,21.30
2019,06,11,11,29,21.30
2019,06,11,11,30,21.30
2019,06,11,11,31,21.30
2019,06,11,11,32,21.20
2019,06,11,11,33,21.20
2019,06,11,11,34,21.20
2019,06,11,11,35,21.20
2019,06,11,11,36,21.20
2019,06,11,11,37,21.20
2019,06,11,11,38,21.30
2019,06,11,11,39,21.30
2019,06,11,11,40,21.40
2019,06,11,11,41,21.40
2019,06,11,11,42,21.40
2019,06,11,11,43,21.50
2019,06,11,11,44,21.50
2019,06,11,11,45,21.60
2019,06,11,11,46,21.50
2019,06,11,11,47,21.40
2019,06,11,11,48,21.30
2019,06,11,11,49,21.30
2019,06,11,11,50,21.20
2019,06,11,11,51,21.20
2019,06,11,11,52,21.10
2019,06,11,11,53,21.20
2019,06,11,11,54,21.30
2019,06,11,11,55,21.40
2019,06,11,11,56,21.40
2019,06,11,11,57,21.40
2019,06,11,11,58,21.50
2019,06,11,11,59,21.50
2019,06,11,12,00,21.60
2019,06,11,12,01,21.70
2019,06,11,12,02,21.70
2019,06,11,12,03,21.70
2019,06,11,12,04,21.70
2019,06,11,12,05,21.60
2019,06,11,12,06,21.60
2019,06,11,12,07,21.60
2019,06,11,12,08,21.60
2019,06,11,12,09,21.60
2019,06,11,12,10,21.70
2019,06,11,12,11,21.70
2019,06,11,12,12,21.80
2019,06,11,12,13,21.80
2019,06,11,12,14,21.80
2019,06,11,12,15,21.80
2019,06,11,12,16,21.80
2019,06,11,12,17,21.90
2019,06,11,12,18,21.90
2019,06,11,12,19,22.00
2019,06,11,12,20,22.10
2019,06,11,12,21,22.10
2019,06,11,12,22,22.00
2019,06,11,12,23,22.10
2019,06,11,12,24,22.10
2019,06,11,12,25,22.10
2019,06,11,12,26,22.20
2019,06,11,12,27,22.20
2019,06,11,12,28,22.20
2019,06,11,12,29,22.30
2019,06,11,12,30,22.30
2019,06,11,12,31,22.30
2019,06,11,12,32,22.30
2019,06,11,12,33,22.40
2019,06,11,12,34,22.40
2019,06,11,12,35,22.40
2019,06,11,12,36,22.40
2019,06,11,12,37,22.40
2019,06,11,12,38,22.40
2019,06,11,12,39,22.40
2019,06,11,12,40,22.40
2019,06,11,12,41,22.40
2019,06,11,12,42,22.40
2019,06,11,12,43,22.30
2019,06,11,12,44,22.40
2019,06,11,12,45,22.40
2019,06,11,12,46,22.40
2019,06,11,12,47,22.40
2019,06,11,12,48,22.40
2019,06,11,12,49,22.40
2019,06,11,12,50,22.40
2019,06,11,12,51,22.50
2019,06,11,12,52,22.50
2019,06,11,12,53,22.60
2019,06,11,12,54,22.60
2019,06,11,12,55,22.60
2019,06,11,12,56,22.60
2019,06,11,12,57,22.60
2019,06,11,12,58,22.60
2019,06,11,12,59,22.60
2019,06,11,13,00,22.60
2019,06,11,13,01,22.60
2019,06,11,13,02,22.60
2019,06,11,13,03,22.70
2019,06,11,13,04,22.70
2019,06,11,13,05,22.80
2019,06,11,13,06,22.80
2019,06,11,13,07,22.80
2019,06,11,13,08,22.80
2019,06,11,13,09,22.80
2019,06,11,13,10,22.80
2019,06,11,13,11,22.80
2019,06,11,13,12,22.90
2019,06,11,13,13,23.00
2019,06,11,13,14,23.10
2019,06,11,13,15,23.10
2019,06,11,13,16,23.10
2019,06,11,13,17,23.20
2019,06,11,13,18,23.20
2019,06,11,13,19,23.30
2019,06,11,13,20,23.40
2019,06,11,13,21,23.40
2019,06,11,13,22,23.40
2019,06,11,13,23,23.50
2019,06,11,13,24,23.50
2019,06,11,13,25,23.50
2019,06,11,13,26,23.60
2019,06,11,13,27,23.60
2019,06,11,13,28,23.60
2019,06,11,13,29,23.60
2019,06,11,13,30,23.60
2019,06,11,13,31,23.60
2019,06,11,13,32,23.60
2019,06,11,13,33,23.70
2019,06,11,13,34,23.70
2019,06,11,13,35,23.70
2019,06,11,13,36,23.80
2019,06,11,13,37,23.80
2019,06,11,13,38,23.90
2019,06,11,13,39,23.90
2019,06,11,13,40,23.90
2019,06,11,13,41,23.90
2019,06,11,13,42,23.90
2019,06,11,13,43,23.90
2019,06,11,13,44,23.90
2019,06,11,13,45,23.90
2019,06,11,13,46,23.90
2019,06,11,13,47,24.00
2019,06,11,13,48,24.10
2019,06,11,13,49,24.20
2019,06,11,13,50,24.30
2019,06,11,13,51,24.40
2019,06,11,13,52,24.40
2019,06,11,13,53,24.50
2019,06,11,13,54,24.60
2019,06,11,13,55,24.60
2019,06,11,13,56,24.60
2019,06,11,13,57,24.50
2019,06,11,13,58,24.50
2019,06,11,13,59,24.50
2019,06,11,14,00,24.40
2019,06,11,14,01,24.40
2019,06,11,14,02,24.40
2019,06,11,14,03,24.40
2019,06,11,14,04,24.40
2019,06,11,14,05,24.40
2019,06,11,14,06,24.50
2019,06,11,14,07,24.60
2019,06,11,14,08,24.60
2019,06,11,14,09,24.60
2019,06,11,14,10,24.60
2019,06,11,14,11,24.70
2019,06,11,14,12,24.70
2019,06,11,14,13,24.80
2019,06,11,14,14,24.70
2019,06,11,14,15,24.80
2019,06,11,14,16,24.80
2019,06,11,14,17,24.80
2019,06,11,14,18,24.80
2019,06,11,14,19,24.80
2019,06,11,14,20,24.80
2019,06,11,14,21,24.80
2019,06,11,14,22,24.80
2019,06,11,14,23,24.70
2019,06,11,14,24,24.70
2019,06,11,14,25,24.60
2019,06,11,14,26,24.60
2019,06,11,14,27,24.60
2019,06,11,14,28,24.50
2019,06,11,14,29,24.50
2019,06,11,14,30,24.50
2019,06,11,14,31,24.40
2019,06,11,14,32,24.40
2019,06,11,14,33,24.40
2019,06,11,14,34,24.50
2019,06,11,14,35,24.50
2019,06,11,14,36,24.50
2019,06,11,14,37,24.50
2019,06,11,14,38,24.60
2019,06,11,14,39,24.60
2019,06,11,14,40,24.60
2019,06,11,14,41,24.70
2019,06,11,14,42,24.70
2019,06,11,14,43,24.70
2019,06,11,14,44,24.70
2019,06,11,14,45,24.70
2019,06,11,14,46,24.80
2019,06,11,14,47,24.80
2019,06,11,14,48,24.80
2019,06,11,14,49,24.80
2019,06,11,14,50,24.80
2019,06,11,14,51,24.80
2019,06,11,14,52,24.80
2019,06,11,14,53,24.80
2019,06,11,14,54,24.80
2019,06,11,14,55,24.80
2019,06,11,14,56,24.80
2019,06,11,14,57,24.80
2019,06,11,14,58,24.80
2019,06,11,14,59,24.80
2019,06,11,15,00,24.80
2019,06,11,15,01,24.80
2019,06,11,15,02,24.80
2019,06,11,15,03,24.80
2019,06,11,15,04,24.80
2019,06,11,15,05,24.80
2019,06,11,15,06,24.80
2019,06,11,15,07,24.80
2019,06,11,15,08,24.90
2019,06,11,15,09,25.00
2019,06,11,15,10,25.10
2019,06,11,15,11,25.10
2019,06,11,15,12,25.10
2019,06,11,15,13,25.10
2019,06,11,15,14,25.10
2019,06,11,15,15,25.10
2019,06,11,15,16,25.10
2019,06,11,15,17,25.10
2019,06,11,15,18,25.10
2019,06,11,15,19,25.20
2019,06,11,15,20,25.30
2019,06,11,15,21,25.30
2019,06,11,15,22,25.40
2019,06,11,15,23,25.40
2019,06,11,15,24,25.40
2019,06,11,15,25,25.50
2019,06,11,15,26,25.50
2019,06,11,15,27,25.60
2019,06,11,15,28,25.60
2019,06,11,15,29,25.70
2019,06,11,15,30,25.70
2019,06,11,15,31,25.70
2019,06,11,15,32,25.70
2019,06,11,15,33,25.70
2019,06,11,15,34,25.60
2019,06,11,15,35,25.60
2019,06,11,15,36,25.60
2019,06,11,15,37,25.60
2019,06,11,15,38,25.60
2019,06,11,15,39,25.60
2019,06,11,15,40,25.70
2019,06,11,15,41,25.70
2019,06,11,15,42,25.70
2019,06,11,15,43,25.80
2019,06,11,15,44,25.80
2019,06,11,15,45,25.80
2019,06,11,15,46,25.80
2019,06,11,15,47,25.80
2019,06,11,15,48,25.80
2019,06,11,15,49,25.70
2019,06,11,15,50,25.60
2019,06,11,15,51,25.60
2019,06,11,15,52,25.60
2019,06,11,15,53,25.60
2019,06,11,15,54,25.60
2019,06,11,15,55,25.70
2019,06,11,15,56,25.70
2019,06,11,15,57,25.70
2019,06,11,15,58,25.70
2019,06,11,15,59,25.80
2019,06,11,16,00,25.80
2019,06,11,16,01,25.80
2019,06,11,16,02,25.90
2019,06,11,16,03,25.90
2019,06,11,16,04,25.90
2019,06,11,16,05,26.00
2019,06,11,16,06,26.00
2019,06,11,16,07,26.10
2019,06,11,16,08,26.10
2019,06,11,16,09,26.20
2019,06,11,16,10,26.20
2019,06,11,16,11,26.20
2019,06,11,16,12,26.20
2019,06,11,16,13,26.20
2019,06,11,16,14,26.30
2019,06,11,16,15,26.30
2019,06,11,16,16,26.30
2019,06,11,16,17,26.30
2019,06,11,16,18,26.30
2019,06,11,16,19,26.40
2019,06,11,16,20,26.40
2019,06,11,16,21,26.50
2019,06,11,16,22,26.50
2019,06,11,16,23,26.60
2019,06,11,16,24,26.60
2019,06,11,16,25,26.60
2019,06,11,16,26,26.60
2019,06,11,16,27,26.60
2019,06,11,16,28,26.60
2019,06,11,16,29,26.60
2019,06,11,16,30,26.70
2019,06,11,16,31,26.70
2019,06,11,16,32,26.80
2019,06,11,16,33,26.90
2019,06,11,16,34,27.00
2019,06,11,16,35,27.00
2019,06,11,16,36,27.10
2019,06,11,16,37,27.20
2019,06,11,16,38,27.20
2019,06,11,16,39,27.30
2019,06,11,16,40,27.30
2019,06,11,16,41,27.40
2019,06,11,16,42,27.40
2019,06,11,16,43,27.40
2019,06,11,16,44,27.40
2019,06,11,16,45,27.30
2019,06,11,16,46,27.20
2019,06,11,16,47,27.20
2019,06,11,16,48,27.20
2019,06,11,16,49,27.10
2019,06,11,16,50,27.10
2019,06,11,16,51,27.10
2019,06,11,16,52,27.00
2019,06,11,16,53,27.00
2019,06,11,16,54,27.00
2019,06,11,16,55,27.00
2019,06,11,16,56,27.00
2019,06,11,16,57,27.00
2019,06,11,16,58,27.00
2019,06,11,16,59,26.90
2019,06,11,17,00,26.90
2019,06,11,17,01,26.90
2019,06,11,17,02,26.90
2019,06,11,17,03,26.90
2019,06,11,17,04,26.90
2019,06,11,17,05,26.80
2019,06,11,17,06,26.80
2019,06,11,17,07,26.70
2019,06,11,17,08,26.70
2019,06,11,17,09,26.70
2019,06,11,17,10,26.60
2019,06,11,17,11,26.60
2019,06,11,17,12,26.60
2019,06,11,17,13,26.60
2019,06,11,17,14,26.60
2019,06,11,17,15,26.60
2019,06,11,17,16,26.70
2019,06,11,17,17,26.70
2019,06,11,17,18,26.70
2019,06,11,17,19,26.70